Location: Newark
(45.8667°N, 9.7333°E)
Time: 17:18:59
(UTC+00:00)

Transit 4A - Pass Details

Date: 28 January 2020
Orbit: 872 x 973 km, 66.8° (Epoch: 26 February)

Event Time Altitude Azimuth Distance (km) Brightness Sun altitude
Rises 15:32:20 0° 313° (NW) 3,469 11.1 6.3°
Reaches altitude 10° 15:35:42 10° 293° (WNW) 2,529 10.7 5.8°
Maximum altitude 15:39:13 17° 256° (WSW) 2,096 11.3 5.3°
Drops below altitude 10° 15:42:45 10° 218° (SW) 2,539 11.9 4.8°
Sets 15:46:09 0° 199° (SSW) 3,488 11.8 4.3°
